Regional Weather Roundup
Issued by NWS Newport/Morehead, NC

Home | Current Version | Previous Version | Text Only | Print | Product List | Glossary On
Versions: 1 2 3 4 5 6 7 8 9 10 11 12 13 14 15 16 17 18 19 20 21 22 23 24 25 26 27 28 29 30 31 32 33 34 35 36 37 38 39 40 41 42 43 44 45 46 47 48 49 50
000
ASUS42 KMHX 230713
RWRMHX
WEATHER ROUNDUP FOR EASTERN NORTH CAROLINA
NATIONAL WEATHER SERVICE NEWPORT/MOREHEAD CITY NC
200 AM EST MON JAN 23 2017

NOTE: "FAIR" INDICATES FEW OR NO CLOUDS BELOW 12,000 FEET
WITH NO SIGNIFICANT WEATHER AND/OR OBSTRUCTIONS TO VISIBILITY

NCZ015>017-031-032-045>047-102-103-230800-
NORTH COAST

CITY           SKY/WX    TMP DP  RH WIND       PRES   REMARKS
EDENTON        CLOUDY    52  51  95 E5        29.44F
ELIZABETH CITY CLOUDY    49  49 100 NE10      29.44F
KITTY HAWK     NOT AVBL
MANTEO         LGT RAIN  47  47 100 E12       29.46F

$$

NCZ045>047-081-094-103-104-230800-
CENTRAL COAST

CITY           SKY/WX    TMP DP  RH WIND       PRES   REMARKS
FRISCO         RAIN      53  52  96 NE12G18   29.43F FOG

$$

NCZ095-097-098-100-101-230800-
SOUTHERN COAST

CITY           SKY/WX    TMP DP  RH WIND       PRES   REMARKS
BEAUFORT       LGT RAIN  58  57  97 E8G20     29.34F
CEDAR ISLAND   NOT AVBL
JACKSONVILLE   LGT RAIN  58  58 100 E13       29.31R
PINEY ISLAND   LGT RAIN N/A N/A N/A E22G29    29.36F
WILMINGTON     CLOUDY    61  61 100 N6        29.27F


$$

NCZ011>013-027>030-043-044-078>080-089-090>093-098-230800-
COASTAL PLAIN

CITY           SKY/WX    TMP DP  RH WIND       PRES   REMARKS
AHOSKIE        LGT RAIN  49  48  97 E7        29.42S
CLINTON        LGT RAIN  59  59 100 NE5       29.29F
ELIZABETHTOWN  DRIZZLE   60  60 100 E6        29.24F
GOLDSBORO      LGT RAIN  55  55 100 E13       29.29F
GREENVILLE     LGT RAIN  52  52 100 E10       29.42F
HAVELOCK       RAIN      53  52  96 E13       29.36F
KENANSVILLE    LGT RAIN  59  57  94 NE5       29.31F FOG
KINSTON        RAIN      55  55 100 NE9       29.35F
NEW BERN       LGT RAIN  55  54  96 E13G18    29.35F FOG
RICHLANDS      LGT RAIN  59  58  96 E16       29.31F
ROCKY MOUNT    LGT RAIN  52  52 100 E8G23     29.35F
WASHINGTON     LGT RAIN  51  51  99 NE8         N/A
WHITEVILLE     CLOUDY    61  60  96 E8        29.23F

$$

AMZ130-135-150-152-154-156-158-170-250-252-270-ANZ085-086-088-633-658-670-230800-
MARINE OBSERVATIONS

STATION/POSITION TIME  TEMP    WIND        PRES    WAVE   SWELL
                       AIR SEA DIR/SP/G            HT/PER HT/PER
                 (UTC) (F)     (DEG/KT/KT) (MB)    (FT/S) (FT/S)
CHESAPEAKE LIGHT NOT AVBL
64 E VA BEACH    0650   53 56   70/  8/ 10  997.8    4/14   3/14
DUCK             0642   46 46   20/ 11/ 13  996.8
2 E DUCK         0700      46                N/A     3/13   2/13
OREGON INLET     0642   47 50   30/  6/  9  997.7
13E OREGON INLT  NOT AVBL
HATTERAS CG      0642   52 55   50/  9/ 13  996.7
DIAMOND BUOY     0650   67 71  160/ 17/ 23  996.7    5/14   3/14
CAPE LOOKOUT     0700   64     100/ 16/ 18  993.1
BEAUFORT LAB     0642   56 52   60/ 12/ 18  992.2
30 SE NEW RVR IN 0608   66 70  160/ 21/ 29  993.4
30 SE NEW RVR IN 0643      70                N/A     7/ 8   2/13
27 SE WRIGHTSVLE 0608   69 67  160/ 21/ 29  991.5
5 SE WRIGHTSVLE  0608   64     160/ 17/ 31  992.5
225 S CAPE HAT   0650   74 71  190/ 25/ 33  998.4   11/ 8   5/11
41 SE CHARLESTON 0650   63 65  260/ 31/ 39  992.1   10/ 8   3/12

$$




USA.gov is the U.S. government's official web portal to all federal, state and local government web resources and services.